When you browse on this site, cookies collect data to enhance your experience and personalize the content and advertising you see.
Visit our Privacy Policy to learn more. By continuing to use the site, you agree to this use of cookies and data.
  • In Hungary
  • List of Countries
  • For 7 days
  • Water Temperature
  • Weather Map
  • News
  • Weather Widgets
  • user-avatar
    Login

    Hourly Weather Namutoni Gate

    Today, 10 December, Tuesday

    Time Temperature Precipitation Wind Pressure Humidity
    00:00 +22°C° 0 mm 3 mps 665 mmHg 27%
    01:00 +21°C° 0 mm 3 mps 665 mmHg 29%
    02:00 +20°C° 0 mm 3 mps 665 mmHg 35%
    03:00 +20°C° 0 mm 3 mps 665 mmHg 41%
    04:00 +19°C° 0 mm 3 mps 665 mmHg 46%
    05:00 +20°C° 0 mm 4 mps 665 mmHg 43%
    06:00 +21°C° 0 mm 4 mps 666 mmHg 40%
    07:00 +22°C° 0 mm 5 mps 667 mmHg 38%
    08:00 +25°C° 0 mm 4 mps 667 mmHg 32%
    09:00 +28°C° 0 mm 2 mps 667 mmHg 27%
    10:00 +30°C° 0 mm 1 mps 668 mmHg 21%
    11:00 +31°C° 0 mm 2 mps 667 mmHg 18%
    12:00 +33°C° 0 mm 3 mps 667 mmHg 16%
    13:00 +34°C° 0 mm 3 mps 667 mmHg 14%
    14:00 +34°C° 0 mm 4 mps 666 mmHg 14%
    15:00 +34°C° 0 mm 4 mps 666 mmHg 14%
    16:00 +34°C° 0 mm 5 mps 665 mmHg 14%
    17:00 +32°C° 0 mm 4 mps 665 mmHg 16%
    18:00 +30°C° 0 mm 4 mps 665 mmHg 17%
    19:00 +28°C° 0 mm 3 mps 665 mmHg 19%
    20:00 +28°C° 0 mm 3 mps 666 mmHg 21%
    21:00 +27°C° 0 mm 3 mps 666 mmHg 22%
    22:00 +27°C° 0 mm 2 mps 666 mmHg 23%
    23:00 +26°C° 0 mm 3 mps 666 mmHg 24%

    Tomorrow, 11 December, Wednesday

    Time Temperature Precipitation Wind Pressure Humidity
    00:00 +25°C° 0 mm 3 mps 666 mmHg 26%
    01:00 +25°C° 0 mm 3 mps 666 mmHg 27%
    02:00 +24°C° 0 mm 3 mps 666 mmHg 30%
    03:00 +22°C° 0 mm 3 mps 665 mmHg 33%
    04:00 +21°C° 0 mm 3 mps 665 mmHg 36%
    05:00 +22°C° 0 mm 3 mps 666 mmHg 35%
    06:00 +24°C° 0 mm 3 mps 667 mmHg 35%
    07:00 +25°C° 0 mm 3 mps 667 mmHg 34%
    08:00 +27°C° 0 mm 3 mps 668 mmHg 28%
    09:00 +30°C° 0 mm 2 mps 668 mmHg 22%
    10:00 +32°C° 0 mm 2 mps 668 mmHg 17%
    11:00 +35°C° 0 mm 2 mps 668 mmHg 16%
    12:00 +36°C° 0 mm 2 mps 668 mmHg 14%
    13:00 +37°C° 0 mm 2 mps 667 mmHg 13%
    14:00 +37°C° 0 mm 2 mps 667 mmHg 13%
    15:00 +37°C° 0 mm 3 mps 666 mmHg 13%
    16:00 +37°C° 0 mm 4 mps 666 mmHg 13%
    17:00 +35°C° 0 mm 4 mps 666 mmHg 15%
    18:00 +33°C° 0 mm 4 mps 665 mmHg 17%
    19:00 +32°C° 0 mm 4 mps 665 mmHg 19%
    20:00 +30°C° 0 mm 4 mps 666 mmHg 20%
    21:00 +29°C° 0 mm 3 mps 666 mmHg 21%
    22:00 +29°C° 0 mm 3 mps 667 mmHg 21%
    23:00 +27°C° 0 mm 3 mps 666 mmHg 23%

    Day after tomorrow, 12 December, Thursday

    Time Temperature Precipitation Wind Pressure Humidity
    00:00 +26°C° 0 mm 3 mps 666 mmHg 26%
    01:00 +25°C° 0 mm 3 mps 666 mmHg 28%
    02:00 +25°C° 0 mm 3 mps 666 mmHg 30%
    03:00 +23°C° 0 mm 4 mps 666 mmHg 32%
    04:00 +23°C° 0 mm 4 mps 665 mmHg 34%
    05:00 +25°C° 0 mm 4 mps 666 mmHg 32%
    06:00 +26°C° 0 mm 4 mps 667 mmHg 31%
    07:00 +27°C° 0 mm 4 mps 667 mmHg 29%
    08:00 +29°C° 0 mm 4 mps 668 mmHg 26%
    09:00 +33°C° 0 mm 3 mps 668 mmHg 22%
    10:00 +35°C° 0 mm 3 mps 668 mmHg 19%
    11:00 +36°C° 0 mm 3 mps 668 mmHg 19%
    12:00 +37°C° 0 mm 3 mps 667 mmHg 18%
    13:00 +38°C° 0 mm 3 mps 667 mmHg 17%
    14:00 +38°C° 0 mm 3 mps 667 mmHg 18%
    15:00 +37°C° 0 mm 3 mps 666 mmHg 18%
    16:00 +37°C° 0 mm 3 mps 666 mmHg 19%
    17:00 +36°C° 0 mm 2 mps 666 mmHg 21%
    18:00 +35°C° 0 mm 2 mps 666 mmHg 24%
    19:00 +33°C° 0 mm 1 mps 666 mmHg 26%
    20:00 +32°C° 0 mm 2 mps 667 mmHg 28%
    21:00 +31°C° 0 mm 2 mps 667 mmHg 30%
    22:00 +30°C° 0 mm 2 mps 667 mmHg 31%
    23:00 +30°C° 0 mm 3 mps 667 mmHg 30%

    13 December, Friday

    Time Temperature Precipitation Wind Pressure Humidity
    00:00 +29°C° 0 mm 4 mps 667 mmHg 28%
    01:00 +29°C° 0 mm 4 mps 667 mmHg 27%
    02:00 +28°C° 0 mm 4 mps 666 mmHg 27%
    03:00 +28°C° 0 mm 3 mps 666 mmHg 27%
    04:00 +27°C° 0 mm 3 mps 666 mmHg 27%
    05:00 +28°C° 0 mm 3 mps 666 mmHg 26%
    06:00 +29°C° 0 mm 3 mps 667 mmHg 25%
    07:00 +30°C° 0 mm 2 mps 667 mmHg 25%
    08:00 +32°C° 0 mm 2 mps 668 mmHg 23%
    09:00 +35°C° 0 mm 2 mps 668 mmHg 21%
    10:00 +37°C° 0 mm 1 mps 668 mmHg 19%
    11:00 +38°C° 0 mm 2 mps 668 mmHg 17%
    12:00 +39°C° 0 mm 2 mps 667 mmHg 16%
    13:00 +40°C° 0 mm 2 mps 667 mmHg 14%
    14:00 +40°C° 0 mm 2 mps 667 mmHg 15%
    15:00 +39°C° 0 mm 3 mps 666 mmHg 15%
    16:00 +39°C° 0 mm 3 mps 666 mmHg 16%
    17:00 +37°C° 0 mm 3 mps 666 mmHg 18%
    18:00 +36°C° 0 mm 3 mps 666 mmHg 20%
    19:00 +35°C° 0 mm 2 mps 666 mmHg 23%
    20:00 +34°C° 0 mm 2 mps 666 mmHg 24%
    21:00 +33°C° 0 mm 3 mps 666 mmHg 25%
    22:00 +33°C° 0 mm 3 mps 667 mmHg 27%
    23:00 +31°C° 0 mm 3 mps 667 mmHg 25%

    14 December, Saturday

    Time Temperature Precipitation Wind Pressure Humidity
    00:00 +32°C° 0 mm 4 mps 666 mmHg 24%
    01:00 +30°C° 0 mm 4 mps 666 mmHg 22%
    02:00 +29°C° 0 mm 4 mps 666 mmHg 23%
    03:00 +29°C° 0 mm 3 mps 666 mmHg 24%
    04:00 +28°C° 0 mm 3 mps 666 mmHg 25%
    05:00 +29°C° 0 mm 3 mps 666 mmHg 25%
    06:00 +29°C° 0 mm 3 mps 667 mmHg 25%
    07:00 +30°C° 0 mm 3 mps 667 mmHg 25%
    08:00 +33°C° 0 mm 3 mps 667 mmHg 23%
    09:00 +35°C° 0 mm 3 mps 668 mmHg 21%
    10:00 +37°C° 0 mm 3 mps 668 mmHg 19%
    11:00 +38°C° 0 mm 3 mps 668 mmHg 19%
    12:00 +38°C° 0 mm 3 mps 667 mmHg 18%
    13:00 +39°C° 0 mm 3 mps 667 mmHg 17%
    14:00 +39°C° 0 mm 2 mps 666 mmHg 17%
    15:00 +39°C° 0 mm 2 mps 666 mmHg 17%
    16:00 +39°C° 0 mm 2 mps 665 mmHg 17%
    17:00 +37°C° 0 mm 2 mps 666 mmHg 19%
    18:00 +36°C° 0 mm 2 mps 666 mmHg 22%
    19:00 +35°C° 0 mm 2 mps 666 mmHg 24%
    20:00 +34°C° 0 mm 2 mps 666 mmHg 26%
    21:00 +32°C° 0 mm 2 mps 666 mmHg 27%
    22:00 +31°C° 0 mm 2 mps 667 mmHg 29%
    23:00 +31°C° 0 mm 2 mps 666 mmHg 28%

    15 December, Sunday

    Time Temperature Precipitation Wind Pressure Humidity
    00:00 +31°C° 0 mm 3 mps 666 mmHg 27%
    01:00 +32°C° 0 mm 4 mps 666 mmHg 26%
    02:00 +31°C° 0 mm 3 mps 666 mmHg 27%
    03:00 +30°C° 0 mm 3 mps 666 mmHg 27%
    04:00 +30°C° 0 mm 3 mps 666 mmHg 28%
    05:00 +30°C° 0 mm 3 mps 666 mmHg 28%
    06:00 +30°C° 0 mm 2 mps 666 mmHg 29%
    07:00 +30°C° 0 mm 2 mps 667 mmHg 29%
    08:00 +33°C° 0 mm 3 mps 667 mmHg 27%
    09:00 +35°C° 0 mm 3 mps 668 mmHg 24%
    10:00 +37°C° 0 mm 4 mps 668 mmHg 21%
    11:00 +37°C° 0 mm 4 mps 668 mmHg 21%
    12:00 +39°C° 0 mm 5 mps 667 mmHg 20%
    13:00 +40°C° 0 mm 5 mps 667 mmHg 19%
    14:00 +40°C° 0 mm 5 mps 666 mmHg 19%
    15:00 +39°C° 0 mm 5 mps 666 mmHg 20%
    16:00 +39°C° 0 mm 5 mps 666 mmHg 20%
    17:00 +37°C° 0 mm 5 mps 666 mmHg 23%
    18:00 +35°C° 0 mm 5 mps 666 mmHg 26%
    19:00 +33°C° 0 mm 6 mps 665 mmHg 29%
    20:00 +32°C° 0.1 mm 4 mps 666 mmHg 34%
    21:00 +30°C° 0.1 mm 2 mps 666 mmHg 38%
    22:00 +29°C° 0.1 mm 1 mps 666 mmHg 42%
    23:00 +28°C° 0 mm 1 mps 666 mmHg 43%
    Show more